Flag Weather past 2 weeks in Kaunas, Lithuania

Now
14 °F

Clear.


Feels Like: 6 °F
Forecast: 14 / 20 °F
Wind: 5 mph from East

Location: Kaunas

Current Time: Nov 29, 2014 at 10:02:40 AM

Latest Report: Nov 29, 2014 at 9:20 AM


Visibility: 5 mi

Pressure: 30.54 "Hg

Humidity: 85%

Dew point: 10 °F

Location of KaunasLocation

Historic Weather in Kaunas — Graph

°F

Kaunas temperature yesterday

Maximum temperature yesterday: 25 °F (at 11:20 AM)
Minimum temperature yesterday: 16 °F (at 7:50 PM)
Average temperature yesterday: 22 °F

Past Weeks' High & Low Weather Summary

 TemperatureHumidityPressure
High43 °F (Nov 16, 11:50 AM)100% (Nov 23, 1:50 AM)30.57 "Hg (Nov 23, 1:50 AM)
Low14 °F (Nov 29, 6:50 AM)44% (Nov 18, 1:20 PM)30.09 "Hg (Nov 16, 12:20 PM)
Average32 °F79%30.32 "Hg
* Reported Nov 14 8:20 AM — Nov 29 8:50 AM, Kaunas, Weather by CustomWeather, © 2014

Note: Actual official high and low records may vary slightly from our data, if they occured in-between our weather recording intervals... More about our weather records

Advertising

Kaunas weather history for previous 24 hours

 ConditionsComfort  
Time TempWeatherWind HumidityBarometerVisibility
8:50 AM
Nov 29
14 °FClear.5 mph85%30.54 "Hg5 mi
8:20 AM14 °FClear.6 mph85%30.54 "Hg5 mi
7:50 AM14 °FClear.3 mph85%30.54 "Hg4 mi
7:20 AM14 °FClear.3 mph85%30.54 "Hg4 mi
6:50 AM14 °FClear.3 mph85%30.54 "Hg5 mi
6:20 AM16 °FPassing clouds.3 mph86%30.54 "Hg5 mi
5:20 AM16 °FPassing clouds.1 mph86%30.54 "Hg6 mi
4:50 AM16 °FOvercast.1 mph86%30.54 "HgN/A
4:20 AM18 °FOvercast.5 mph79%30.54 "HgN/A
3:50 AM19 °FLow clouds.8 mph79%30.54 "HgN/A
3:20 AM19 °FLow clouds.7 mph86%30.54 "HgN/A
2:50 AM19 °FLow clouds.5 mph86%30.54 "Hg6 mi
2:20 AM19 °FLow clouds.7 mph86%30.54 "Hg6 mi
1:50 AM19 °FLow clouds.6 mph86%30.54 "Hg6 mi
1:20 AM19 °FLow clouds.5 mph86%30.54 "Hg6 mi
12:50 AM19 °FLow clouds.6 mph86%30.54 "Hg6 mi
12:20 AM19 °FLow clouds.6 mph86%30.54 "Hg6 mi
11:50 PM
Nov 28
19 °FLow clouds.6 mph86%30.54 "Hg6 mi
11:20 PM19 °FLow clouds.7 mph86%30.54 "Hg5 mi
10:50 PM19 °FLow clouds.8 mph86%30.54 "Hg5 mi
10:20 PM18 °FLow clouds.8 mph93%30.54 "Hg4 mi
9:50 PM18 °FLight snow. Low clouds.9 mph86%30.54 "Hg4 mi
9:20 PM18 °FLow clouds.8 mph86%30.54 "Hg4 mi
8:50 PM18 °FLow clouds.8 mph86%30.51 "Hg4 mi
8:20 PM18 °FLow clouds.7 mph86%30.51 "Hg4 mi
7:50 PM16 °FPassing clouds.6 mph79%30.51 "Hg5 mi
7:20 PM18 °FClear.7 mph79%30.51 "Hg5 mi
6:50 PM18 °FClear.7 mph79%30.51 "Hg6 mi
6:20 PM19 °FClear.7 mph79%30.51 "Hg10 mi
5:50 PM18 °FClear.6 mph79%30.51 "Hg10 mi
5:20 PM19 °FClear.7 mph79%30.48 "Hg10 mi
4:50 PM19 °FClear.6 mph79%30.48 "Hg10 mi
4:20 PM21 °FClear.10 mph74%30.48 "Hg10 mi
3:50 PM23 °FSunny.9 mph68%30.48 "Hg10 mi
3:20 PM23 °FSunny.8 mph74%30.48 "Hg10 mi
2:50 PM25 °FSunny.9 mph69%30.48 "Hg10 mi
2:20 PM25 °FSunny.9 mph63%30.48 "Hg10 mi
1:50 PM25 °FPassing clouds.7 mph63%30.48 "HgN/A
1:20 PM25 °FSunny.8 mph63%30.48 "Hg10 mi
12:50 PM25 °FOvercast.8 mph63%30.48 "HgN/A
12:20 PM25 °FMostly cloudy.9 mph63%30.48 "HgN/A
11:50 AM25 °FMostly cloudy.9 mph69%30.48 "HgN/A
11:20 AM25 °FOvercast.8 mph69%30.45 "HgN/A
10:50 AM23 °FMostly cloudy.8 mph74%30.45 "Hg6 mi
10:20 AM23 °FLight snow. More clouds than sun.9 mph74%30.45 "Hg6 mi
Weather by CustomWeather, © 2014

See weather overviewHow to use our weather pages